Simultaneous Nadir Overpasses (SNOs) Predictions

Prediction of SNOs between AQUA and NOAA-19 Satellite Orbit:

Table of predicted SNOs for the next 14.0 days since TLE Epoch: 11/16/2013
Index Date (AQUA) Time (AQUA) Lat,Lon (AQUA) SZA (AQUA ) Date (NOAA-19) Time (NOAA-19) Lat,Lon (NOAA-19) SZA (NOAA-19 ) Distance(km) Time Diff (sec)
1 11/17/2013 16:00:45 -67.99, 122.89 92.86 11/17/2013 16:00:35 -67.99, 122.88 92.86 0.37 10
2 11/17/2013 16:46:59 56.82, -60.54 76.83 11/17/2013 16:48:12 56.87, -60.14 76.98 25.35 73
3 11/19/2013 20:45:11 -68.43, 51.29 91.93 11/19/2013 20:44:53 -68.44, 51.28 91.93 0.38 18
4 11/19/2013 21:33:32 64.64,-137.13 84.51 11/19/2013 21:34:41 64.64,-137.14 84.53 0.12 69
5 11/22/2013 01:29:38 -68.99, -20.47 90.92 11/22/2013 01:29:13 -68.99, -20.50 90.92 1.62 25
6 11/22/2013 02:18:02 65.39, 151.12 85.68 11/22/2013 02:19:04 65.39, 151.09 85.70 1.08 62
7 11/24/2013 06:13:54 -68.98, -91.53 90.47 11/24/2013 06:13:22 -68.98, -91.50 90.48 1.11 32
8 11/24/2013 07:02:17 65.33, 80.10 86.07 11/24/2013 07:03:12 65.32, 80.14 86.08 1.91 55
9 11/26/2013 10:58:23 -69.75,-163.60 89.31 11/26/2013 10:57:46 -69.76,-163.66 89.30 2.59 37
10 11/26/2013 11:46:49 66.29, 8.10 87.39 11/26/2013 11:47:39 66.29, 8.09 87.41 0.80 50
11 11/28/2013 15:42:42 -70.01, 124.97 88.66 11/28/2013 15:42:00 -70.02, 124.91 88.66 2.25 42
12 11/28/2013 16:31:05 66.40, -63.07 87.88 11/28/2013 16:31:50 66.40, -63.05 87.89 0.59 45




NCC Satellite Simultaneous Nadir Overpasses (SNOs) Prediction Service
